Weather History for Craig, CO

Change the Weather History Date:

Thursday, February 7, 2013

  Actual Average Record
Temperature  
Mean Temperature 21 °F 18 °F  
Max Temperature 35 °F 32 °F 48 °F (2000)
Min Temperature 6 °F 5 °F -20 °F (2003)
Degree Days  
Heating Degree Days 44 46  
Month to date heating degree days 315 328  
Since 1 July heating degree days 5289 5412  
Cooling Degree Days 0 0  
Month to date cooling degree days 0 0  
Year to date cooling degree days 0 0  
Moisture  
Dew Point 9 °F    
Average Humidity 68    
Maximum Humidity 92    
Minimum Humidity 43    
Precipitation  
Precipitation 0.00 in 0.03 in 0.35 in (2011)
Month to date precipitation T 0.20  
Year to date precipitation 0.71 1.08  
Sea Level Pressure  
Sea Level Pressure 30.28 in    
Wind  
Wind Speed 4 mph (East)    
Max Wind Speed 21 mph    
Max Gust Speed 23 mph    
Visibility 6 miles    
Events Fog    
T = Trace of Precipitation, MM = Missing Value Source: NWS Daily Summary

Daily Weather History Graph

Daily Weather History Graph

Search for Another Location

Airport:

Trip Planner

Search our weather history database for the weather conditions in past years. The results will help you decide how hot, cold, wet, or windy it might be!

Date:

Astronomy

Feb. 07, 2013 Rise Set
Actual Time 7:13 AM MST 5:36 PM MST
Civil Twilight 6:44 AM MST 6:04 PM MST
Nautical Twilight 6:12 AM MST 6:36 PM MST
Astronomical Twilight 5:40 AM MST 7:08 PM MST
Moon 4:55 AM MST (2/7) 3:03 PM MST (2/7)
Length of Visible Light 11h 19m
Length of Day
10h 23m
Waning Crescent, 8% of the Moon is Illuminated
Feb 7
Waning Crescent
Feb 10
New
Feb 17
First Quarter
Feb 25
Full
Mar 4
Last Quarter

Hourly Weather History & Observations

Time (MST) Temp. Windchill Dew Point Humidity Pressure Visibility Wind Dir Wind Speed Gust Speed Precip Events Conditions
12:53 AM 12.0 °F - 8.1 °F 84% 30.30 in 10.0 mi Calm Calm - N/A   Clear
1:24 AM 15.8 °F 10.2 °F 10.4 °F 79% 30.17 in 4.0 mi ESE 3.5 mph - N/A   Haze
1:30 AM 12.2 °F 4.3 °F 10.4 °F 92% 30.18 in 2.5 mi East 4.6 mph - N/A   Mostly Cloudy
1:32 AM 14.0 °F 6.5 °F 10.4 °F 86% 30.17 in 1.0 mi East 4.6 mph - N/A   Mist
1:39 AM 14.0 °F 8.2 °F 10.4 °F 86% 30.18 in 0.2 mi ESE 3.5 mph - N/A Fog Light Freezing Fog
1:53 AM 12.9 °F - 10.9 °F 92% 30.31 in 0.2 mi Calm Calm - N/A Fog Light Freezing Fog
2:53 AM 14.0 °F - 8.1 °F 77% 30.31 in 0.2 mi Calm Calm - N/A   Haze
3:53 AM 12.9 °F 6.9 °F 7.0 °F 77% 30.32 in 0.2 mi SSE 3.5 mph - N/A   Haze
4:53 AM 12.9 °F - 7.0 °F 77% 30.35 in 0.5 mi Calm Calm - N/A   Haze
5:53 AM 10.9 °F 4.7 °F 3.9 °F 73% 30.35 in 0.5 mi East 3.5 mph - N/A   Haze
6:18 AM 8.6 °F 2.0 °F 3.2 °F 79% 30.21 in 1.2 mi ESE 3.5 mph - N/A   Haze
6:25 AM 8.6 °F - 3.2 °F 79% 30.21 in 3.0 mi Calm Calm - N/A   Haze
6:53 AM 10.0 °F 3.6 °F 3.9 °F 76% 30.38 in 9.0 mi SW 3.5 mph - N/A   Overcast
7:40 AM 10.4 °F - 3.2 °F 73% 30.23 in 1.2 mi Calm Calm - N/A   Haze
7:53 AM 10.9 °F - 3.9 °F 73% 30.41 in 0.5 mi Calm Calm - N/A   Haze
8:36 AM 12.2 °F - 6.8 °F 79% 30.24 in 1.2 mi Calm Calm - N/A   Haze
8:41 AM 12.2 °F - 5.0 °F 73% 30.24 in 3.0 mi Calm Calm - N/A   Haze
8:53 AM 12.9 °F 6.9 °F 3.9 °F 67% 30.43 in 9.0 mi WSW 3.5 mph - N/A   Scattered Clouds
9:53 AM 19.0 °F - 10.9 °F 71% 30.40 in 10.0 mi Calm Calm - N/A   Clear
10:53 AM 23.0 °F 9.2 °F 12.9 °F 65% 30.38 in 10.0 mi NE 17.3 mph - N/A   Clear
11:53 AM 27.0 °F 13.5 °F 14.0 °F 58% 30.35 in 10.0 mi NE 19.6 mph - N/A   Clear
12:53 PM 30.0 °F 21.7 °F 12.9 °F 49% 30.32 in 10.0 mi ESE 9.2 mph 20.7 mph N/A   Clear
1:53 PM 32.0 °F - 16.0 °F 52% 30.27 in 10.0 mi Calm Calm - N/A   Clear
2:53 PM 34.0 °F 28.0 °F 17.1 °F 50% 30.24 in 10.0 mi East 6.9 mph - N/A   Clear
3:53 PM 35.1 °F 27.9 °F 16.0 °F 46% 30.21 in 10.0 mi ENE 9.2 mph - N/A   Clear
4:53 PM 34.0 °F 28.8 °F 14.0 °F 44% 30.20 in 10.0 mi ENE 5.8 mph - N/A   Clear
5:53 PM 27.0 °F 23.0 °F 12.9 °F 56% 30.23 in 10.0 mi Variable 3.5 mph - N/A   Clear
6:53 PM 24.1 °F 17.0 °F 12.0 °F 60% 30.25 in 10.0 mi ENE 5.8 mph - N/A   Clear
7:53 PM 19.9 °F - 10.0 °F 65% 30.25 in 10.0 mi Calm Calm - N/A   Clear
8:53 PM 12.0 °F - 5.0 °F 73% 30.27 in 10.0 mi Calm Calm - N/A   Clear
9:53 PM 10.9 °F - 5.0 °F 77% 30.25 in 10.0 mi Calm Calm - N/A   Clear
10:53 PM 10.0 °F - 3.0 °F 73% 30.23 in 10.0 mi Calm Calm - N/A   Clear
11:53 PM 6.1 °F - 1.0 °F 80% 30.23 in 10.0 mi Calm Calm - N/A   Clear